Location: West Cummington
(42.4920°N, 72.9680°W)
Time: 07:59:34
(UTC-04:00)

Daily predictions for brighter satellites

Satellite Brightness Start Highest point End
(mag) Time Altitude Azimuth Time Altitude Azimuth Time Altitude Azimuth
NOSS 2-2 (E) 3.6 20:44:12 10° SSW 20:48:17 62° ESE 20:53:04 10° NE
deb Chang Zheng 4 4.2 20:49:38 10° NNE 20:53:44 37° E 20:57:51 10° SSE
Cosmos 2082 Rocket 4.3 20:51:28 10° NNE 20:54:00 13° NE 20:56:31 10° ENE
OPS 6432 4.4 20:51:44 10° SSW 20:55:09 51° ESE 20:58:11 10° NE
Cosmos 2184 Rocket 4.0 20:49:54 10° S 20:56:00 69° E 21:02:09 10° NNE
ERBS 2.4 20:53:09 10° NW 20:56:38 78° SW 21:00:05 10° SE
CZ-3C R/B 4.4 20:30:59 10° SW 20:56:48 21° SSW 21:04:37 10° SSE
Meteor 2-3 Rocket 4.0 20:51:34 10° SSW 20:57:10 73° W 21:02:47 10° N
YAOGAN 6 4.3 20:55:20 10° ESE 20:57:42 17° ENE 21:00:05 10° NNE
Cosmos 1408 4.3 20:55:48 10° SE 20:58:09 16° E 21:00:30 10° NE
H-2A R/B 4.2 20:56:39 10° ENE 20:58:15 11° ENE 20:59:51 10° NE
Cosmos 1356 Rocket 3.4 20:55:11 10° S 20:59:24 84° E 21:03:43 10° N
Cosmos 1733 Rocket 3.1 20:55:07 10° S 20:59:29 65° E 21:03:51 10° NNE
Cosmos 2263 Rocket 3.8 20:55:09 10° SW 21:00:28 41° WNW 21:05:48 10° NNE
SL-8 R/B 3.7 20:57:49 10° WSW 21:02:38 80° SSE 21:07:28 10° ENE
YAOGAN 11 4.4 20:58:16 10° S 21:02:47 78° WSW 21:07:22 10° NNW
Cosmos 407 Rocket 3.9 20:57:50 10° N 21:02:59 51° ENE 21:08:09 10° SE
Meteor 1-27 Rocket 4.1 21:01:54 10° N 21:07:16 45° ENE 21:12:31 10° SSE
PSLV R/B 4.1 21:04:42 10° W 21:07:57 39° SSW 21:10:49 13° SE
Meteor 2-10 Rocket 4.0 21:03:33 10° NNW 21:09:23 77° W 21:15:04 10° S
ERS-1 Rocket 3.1 21:04:24 10° SSE 21:09:26 85° WSW 21:14:31 10° NNW
Cosmos 1452 Rocket 4.1 21:05:59 10° SSE 21:10:43 35° E 21:15:29 10° NE
Cosmos 2084 4.4 21:09:10 10° SSE 21:12:05 21° ESE 21:15:00 10° ENE
Cosmos 1340 Rocket 4.2 21:08:44 10° SSW 21:12:32 43° WNW 21:16:25 10° N
Cosmos 909 Rocket 4.4 21:07:29 10° SSW 21:14:01 86° WNW 21:21:58 10° NNE
Cosmos 1190 Rocket 4.0 21:10:25 10° NNW 21:15:38 81° ENE 21:20:50 10° SSE
CZ-4 DEB 4.2 21:13:15 10° SSW 21:16:12 36° W 21:19:11 10° NNW
Cosmos 1782 2.8 21:15:15 10° N 21:19:17 86° ENE 21:23:20 10° S
USA 234 4.3 21:17:10 10° ENE 21:21:59 21° ESE 21:26:45 10° S
Atlas Centaur 2 3.1 21:21:16 10° SSW 21:22:51 12° S 21:23:48 12° SSE
Cosmos 1939 Rocket 2.9 21:20:21 10° S 21:24:12 74° WSW 21:28:08 10° NNW
Cosmos 1606 2.9 21:21:16 10° N 21:25:09 58° E 21:28:25 14° SSE
H-2A R/B 2.1 21:21:34 10° SSE 21:25:55 87° W 21:30:11 10° NNW
CZ-4B R/B 4.2 21:25:17 10° NNE 21:29:43 32° E 21:33:05 15° SSE
Cosmos 1892 4.4 21:29:03 10° SW 21:32:36 36° WNW 21:36:12 10° N
Nadezhda 3 Rocket 4.0 21:37:43 10° N 21:44:07 84° E 21:50:03 12° S
Cosmos 676 Rocket 4.0 21:40:35 10° NNW 21:45:49 89° ENE 21:49:42 18° SSE
Cosmos 1184 Rocket 3.0 21:45:10 24° SSE 21:46:54 49° E 21:50:09 10° NNE
Okean 2 Rocket 3.4 21:45:32 19° SSE 21:48:25 47° E 21:52:39 10° NNE
CENTAUR R/B 4.1 21:42:38 10° NW 21:49:54 40° WSW 21:57:28 10° S
MetOp-B 4.1 21:46:45 15° SSE 21:51:14 89° W 21:56:37 10° NNW
Cosmos 1174 3.1 21:47:59 10° NNW 21:51:16 82° WSW 21:52:28 33° SSE
Cosmos 1954 Rocket 4.0 21:46:50 10° NNW 21:52:03 79° ENE 21:55:30 22° SSE
Sich 1 Rocket 4.4 21:50:40 10° SSW 21:55:09 55° W 21:59:41 10° N
CZ-4 SHROUD 3.7 21:59:37 25° S 22:01:12 55° W 22:04:15 10° NNW
Cosmos 1741 Rocket 4.4 21:57:11 10° N 22:02:16 47° ENE 22:04:49 27° SE
Intercosmos 25 3.1 22:02:34 31° SSE 22:04:03 56° E 22:07:12 10° NNE
ARGOS 3.1 22:01:08 23° SSE 22:04:30 75° ENE 22:09:51 10° N
Cosmos 2341 Rocket 4.0 21:58:26 10° S 22:04:45 87° W 22:11:04 10° N
ATLAS 5 CENTAUR R/B 3.8 22:00:21 10° NW 22:05:38 31° WSW 22:10:53 11° S
COS B Rocket 4.3 22:02:41 10° N 22:06:42 46° W 22:10:09 11° SSW
Cosmos 1782 Rocket 3.6 22:04:17 15° S 22:07:56 86° W 22:12:26 10° N
Landsat 7 4.1 22:09:27 30° SE 22:11:28 51° ENE 22:16:05 10° N
Meteor 1-14 Rocket 4.4 22:08:16 24° SSE 22:11:30 53° E 22:16:56 10° NNE
Okean 3 3.8 22:08:13 10° NNW 22:12:30 65° W 22:14:59 23° S
Meteor 2-13 Rocket 4.4 22:07:53 14° S 22:13:16 82° E 22:19:27 10° N
COSMOS 2487 2.7 22:11:04 10° NNW 22:14:41 68° WSW 22:15:53 38° S
DNEPR-1 R/B 3.9 22:09:51 10° NNW 22:15:21 68° NE 22:17:21 34° SE
Timation 2 Rocket 3.8 22:10:42 10° NNW 22:16:44 75° ENE 22:19:46 30° SE
Cosmos 1238 Rocket 3.5 22:15:23 10° NNW 22:18:22 39° W 22:20:11 22° SSW
APEX 3.5 22:17:23 39° SSE 22:18:28 52° ESE 22:23:14 10° NNE
Cosmos 2278 Rocket 2.3 22:14:19 10° SSW 22:19:59 82° WNW 22:25:43 10° NNE
SPOT 5 4.3 22:17:34 12° SSW 22:22:06 38° W 22:27:06 10° NNW
Cosmos 1833 Rocket 3.4 22:16:54 10° NNW 22:22:12 40° ENE 22:24:36 27° ESE
Cosmos 1975 Rocket 3.4 22:18:47 10° NNW 22:23:03 60° W 22:25:16 27° SSW
Cosmos 1023 Rocket 4.4 22:18:00 10° NNW 22:23:08 82° WSW 22:25:28 33° SSE
Cosmos 1825 3.5 22:21:19 10° SSW 22:24:51 38° WNW 22:28:27 10° N
CARTOSAT-1 3.9 22:24:39 39° ESE 22:25:44 49° ENE 22:29:55 10° N
SL-8 Rocket 3.9 22:21:27 20° S 22:25:59 83° E 22:32:16 10° N
ISS -2.8 22:23:36 10° SW 22:25:57 44° SW 22:25:57 44° SW
Terra 2.1 22:25:43 37° ESE 22:27:13 51° ENE 22:31:50 10° N
Cosmos 1844 Rocket 4.3 22:23:26 10° WSW 22:28:36 36° WNW 22:33:48 10° N
Spot 4 4.5 22:29:22 34° ESE 22:30:46 43° ENE 22:35:21 10° N
YAOGAN 6 4.2 22:29:22 19° SW 22:31:05 28° W 22:34:10 10° NW
Cosmos 1408 4.4 22:29:52 10° SW 22:33:07 29° WNW 22:36:22 10° NNW
Cosmos 1536 Rocket 3.7 22:31:26 10° N 22:35:52 58° E 22:36:45 48° SE
Cosmos 1420 Rocket 4.1 22:31:27 13° SSW 22:36:12 77° WNW 22:41:27 10° NNE
H-2A R/B 2.1 22:34:39 38° SSE 22:36:47 76° ENE 22:42:07 10° N
ASTEX 1 4.1 22:34:03 10° NNE 22:38:36 36° E 22:39:07 35° ESE
Cosmos 2082 Rocket 2.3 22:33:31 10° NNW 22:39:14 68° ENE 22:41:15 40° SE
Meteor 2-8 Rocket 4.5 22:33:11 10° N 22:39:19 67° E 22:41:45 38° SSE
Cosmos 1812 3.5 22:36:56 10° N 22:40:32 38° ENE 22:40:32 38° ENE
Cosmos 1242 Rocket 3.6 22:39:33 10° NNW 22:43:00 40° W 22:43:57 33° SW
CZ-4C R/B 3.5 22:49:12 55° SSW 22:49:46 64° W 22:53:48 10° NNW
Cosmos 614 Rocket 4.0 22:45:59 10° NNW 22:51:03 70° WSW 22:52:31 45° S
Cosmos 2297 3.7 22:48:47 22° SSW 22:52:39 87° WNW 22:58:25 10° NNE
Cosmos 2151 Rocket 3.7 22:52:35 45° SSW 22:53:54 76° W 22:58:27 10° N
Cosmos 1140 Rocket 4.4 22:51:34 10° NW 22:56:22 40° WSW 22:58:17 29° SSW
Cosmos 864 Rocket 4.4 22:54:35 32° SSW 22:57:39 83° W 23:03:51 10° N
Cosmos 2366 rocket 4.2 23:01:48 28° SSW 23:05:18 70° W 23:11:39 10° N
USA 234 3.1 22:59:00 10° NE 23:05:35 83° SE 23:12:07 10° SW
SAR-Lupe-2 3.9 23:11:18 63° NNW 23:11:18 63° NNW 23:14:23 10° NNW
Spot 2 3.9 23:11:03 10° NNE 23:15:27 86° E 23:15:27 86° E
Cosmos 1025 Rocket 4.1 23:18:12 10° N 23:21:53 35° ENE 23:21:53 35° ENE
Okean 1 Rocket 3.0 23:22:47 76° ENE 23:22:47 76° ENE 23:27:06 10° N
Cosmos 1300 Rocket 3.5 23:23:43 87° NW 23:23:43 87° NW 23:28:09 10° N
Okean 1-7 Rocket 3.5 23:19:18 10° N 23:23:41 75° ENE 23:23:41 75° ENE
BREEZE-M DEB (TANK) 4.0 23:25:24 10° NW 23:27:46 29° NNE 23:32:53 10° E
Cosmos 2369 Rocket 3.5 23:31:03 24° E 23:31:03 24° E 23:34:31 10° NE
Okean 1 3.8 23:26:57 10° NNW 23:30:38 58° WNW 23:30:38 58° WNW
Cosmos 1000 Rocket 4.4 23:36:33 10° N 23:42:49 88° W 23:44:01 62° S
Cosmos 2239 Rocket 4.4 23:47:42 63° S 23:48:51 85° E 23:55:12 10° N
Cosmos 1503 Rocket 4.4 23:46:34 10° N 23:51:40 52° ENE 23:51:57 51° ENE
